Mumbai, India

1:33 PM IST on March 27, 2017 (GMT +0530)
Chhatrapati Shivaji International

Weather History for VABB - March, 2014

Change the Weather History Date:

Monday, March 3, 2014

  Actual Average Record
Temperature  
Mean Temperature 78 °F -  
Max Temperature 92 °F 89 °F 102 °F (2004)
Min Temperature 63 °F 71 °F 59 °F (2015)
Cooling Degree Days 12    
Growing Degree Days 28 (Base 50)    
Moisture  
Dew Point 52 °F    
Average Humidity 37    
Maximum Humidity 60    
Minimum Humidity 16    
Precipitation  
Precipitation 0.00 in - - ()
Sea Level Pressure  
Sea Level Pressure 29.85 in    
Wind  
Wind Speed 5 mph ()    
Max Wind Speed 15 mph    
Max Gust Speed 24 mph    
Visibility 2.1 miles    
Events      
Averages and records for this station are not official NWS values.
T = Trace of Precipitation, MM = Missing Value Source: Averaged Metar Reports

Daily Weather History Graph

Daily Weather History Graph

Search for Another Location

Airport or City:

Trip Planner

Search our weather history database for the weather conditions in past years. The results will help you decide how hot, cold, wet, or windy it might be!

Date:

Astronomy

Mar. 03, 2014 Rise Set
Actual Time 6:56 AM IST 6:44 PM IST
Civil Twilight 6:34 AM IST 7:06 PM IST
Nautical Twilight 6:09 AM IST 7:32 PM IST
Astronomical Twilight 5:43 AM IST 7:57 PM IST
Moon 8:10 AM IST (3/3) 8:51 PM IST (3/3)
Length of Visible Light 12h 31m
Length of Day
11h 48m
Waxing Crescent, 5% of the Moon is Illuminated
Mar 3
Waxing Crescent
Mar 8
First Quarter
Mar 16
Full
Mar 24
Last Quarter
Mar 31
New

Hourly Weather History & Observations

Time (IST) Temp. Heat Index Dew Point Humidity Pressure Visibility Wind Dir Wind Speed Gust Speed Precip Events Conditions
12:40 AM 73.4 °F - 55.4 °F 53% 29.86 in 1.9 mi ENE 3.5 mph - N/A   Smoke
1:10 AM 73.4 °F - 55.4 °F 53% 29.86 in 1.7 mi East 3.5 mph - N/A   Smoke
1:40 AM 73.4 °F - 53.6 °F 50% 29.86 in 1.7 mi East 3.5 mph - N/A   Smoke
2:10 AM 73.4 °F - 53.6 °F 50% 29.83 in 1.6 mi NNE 4.6 mph - N/A   Smoke
2:30 AM 67 °F - 56 °F 60% 29.84 in 1 mi Calm Calm - -   Smoke
2:40 AM 73.4 °F - 51.8 °F 47% 29.83 in 1.6 mi NNE 4.6 mph - N/A   Smoke
3:40 AM 73.4 °F - 48.2 °F 41% 29.83 in 1.9 mi Calm Calm - N/A   Smoke
4:10 AM 69.8 °F - 55.4 °F 60% 29.83 in 1.6 mi SSW 3.5 mph - N/A   Smoke
5:30 AM 65 °F - 48 °F 44% 29.83 in 1 mi Calm Calm - -   Smoke
5:40 AM 73.4 °F - 42.8 °F 33% 29.83 in 1.9 mi NE 4.6 mph - N/A   Smoke
6:10 AM 75.2 °F - 42.8 °F 31% 29.83 in 1.9 mi NNE 6.9 mph - N/A   Smoke
6:40 AM 73.4 °F - 41.0 °F 31% 29.86 in 1.9 mi NNE 6.9 mph - N/A   Smoke
7:10 AM 73.4 °F - 42.8 °F 33% 29.86 in 2.5 mi North 4.6 mph - N/A   Smoke
7:40 AM 73.4 °F - 42.8 °F 33% 29.86 in 2.5 mi NNE 6.9 mph - N/A   Smoke
8:10 AM 75.2 °F - 42.8 °F 31% 29.89 in 2.5 mi NNE 8.1 mph - N/A   Smoke
8:30 AM 73 °F - 48 °F 30% 29.90 in 1 mi NE 3.5 mph - -   Smoke
8:40 AM 77.0 °F - 42.8 °F 29% 29.89 in 2.5 mi NNE 9.2 mph - N/A   Smoke
9:10 AM 78.8 °F - 42.8 °F 28% 29.89 in 2.5 mi NNE 9.2 mph - N/A   Smoke
9:40 AM 80.6 °F - 42.8 °F 26% 29.92 in 2.5 mi NE 10.4 mph - N/A   Smoke
10:10 AM 84.2 °F - 44.6 °F 25% 29.92 in 2.5 mi NE 9.2 mph - N/A   Smoke
10:40 AM 84.2 °F - 46.4 °F 27% 29.92 in 2.5 mi ENE 9.2 mph - N/A   Smoke
11:10 AM 86.0 °F - 48.2 °F 27% 29.92 in 2.5 mi NE 6.9 mph - N/A   Smoke
11:30 AM 87 °F - 48 °F 16% 29.91 in 1 mi NE 4.6 mph - -   Smoke
11:40 AM 87.8 °F - 50.0 °F 27% 29.92 in 2.5 mi ESE 4.6 mph - N/A   Smoke
12:10 PM 89.6 °F - 51.8 °F 27% 29.89 in 2.5 mi ESE 4.6 mph - N/A   Smoke
12:40 PM 91.4 °F 89.1 °F 53.6 °F 28% 29.86 in 2.5 mi ESE 5.8 mph - N/A   Smoke
1:40 PM 87.8 °F 86.5 °F 57.2 °F 35% 29.83 in 3.7 mi WNW 12.7 mph - N/A   Unknown
2:30 PM 88 °F - 58 °F 27% 29.83 in 1 mi NW 6.9 mph - -   Smoke
2:40 PM 86.0 °F 85.4 °F 59.0 °F 40% 29.83 in 3.1 mi NW 15.0 mph - N/A   Smoke
3:10 PM 86.0 °F 85.4 °F 59.0 °F 40% 29.80 in 2.5 mi NW 9.2 mph 20.7 mph N/A   Smoke
3:40 PM 86.0 °F 84.9 °F 57.2 °F 37% 29.80 in 2.5 mi NW 8.1 mph 19.6 mph N/A   Smoke
4:10 PM 86.0 °F 85.4 °F 59.0 °F 40% 29.77 in 2.5 mi NW 15.0 mph - N/A   Smoke
4:40 PM 84.2 °F 84.4 °F 60.8 °F 45% 29.77 in 2.5 mi NW 8.1 mph 19.6 mph N/A   Smoke
5:10 PM 84.2 °F 83.8 °F 59.0 °F 42% 29.77 in 2.5 mi NW 8.1 mph 19.6 mph N/A   Smoke
5:30 PM 82 °F - 59 °F 35% 29.78 in 2 mi NW 9.2 mph - -  
5:40 PM 82.4 °F 82.0 °F 57.2 °F 42% 29.77 in 2.5 mi NW 12.7 mph 24.2 mph N/A   Smoke
6:10 PM 82.4 °F 81.7 °F 55.4 °F 39% 29.80 in 2.5 mi NW 10.4 mph 21.9 mph N/A   Smoke
6:40 PM 82.4 °F 82.0 °F 57.2 °F 42% 29.80 in 2.2 mi NW 12.7 mph - N/A   Smoke
7:10 PM 80.6 °F 80.8 °F 57.2 °F 45% 29.80 in 2.2 mi NNW 13.8 mph - N/A   Smoke
7:40 PM 80.6 °F 80.5 °F 55.4 °F 42% 29.80 in 2.2 mi NNW 13.8 mph - N/A   Smoke
8:10 PM 80.6 °F 80.5 °F 55.4 °F 42% 29.83 in 2.2 mi North 9.2 mph - N/A   Smoke
8:30 PM 80 °F - 56 °F 34% 29.83 in 1 mi NNW 9.2 mph - -   Smoke
8:40 PM 80.6 °F 80.3 °F 53.6 °F 39% 29.83 in 2.2 mi NNE 6.9 mph - N/A   Smoke
9:10 PM 80.6 °F 80.3 °F 53.6 °F 39% 29.86 in - NE 5.8 mph - N/A   Smoke
9:40 PM 80.6 °F - 51.8 °F 37% 29.86 in - NNE 5.8 mph - N/A   Smoke
10:10 PM 80.6 °F - 50.0 °F 34% 29.86 in 2.2 mi NNW 5.8 mph - N/A   Smoke
10:40 PM 80.6 °F - 48.2 °F 32% 29.86 in 2.2 mi Calm Calm - N/A   Smoke
11:10 PM 80.6 °F - 50.0 °F 34% 29.86 in 2.2 mi Calm Calm - N/A   Smoke
11:30 PM 74 °F - 55 °F 41% 29.87 in 1 mi North 3.5 mph - -   Smoke
11:40 PM 78.8 °F - 48.2 °F 34% 29.86 in 2.2 mi Calm Calm - N/A   Smoke